STARLINK-32283

Last updated on Thu Jan 23 2025 00:02:04 GMT+0000 (Coordinated Universal Time)

1 62425U 24249S 25022.50001157 -.01537999 00000+0 -33722-1 0 9992 2 62425 42.9999 131.2039 0001313 280.4069 122.9570 15.46332367 4852
UTC large
Height (km)
Speed (km/s)
/
Latitude / Longitude
Inclination (degrees)
Orbital Period (minutes)
Azimuth
Elevation
Range (km)
Doppler Factor

Next 0 passes for location: London (51.5072 / 0.1276)

Sorry there are no passes over London.